Weather History for PAJC - February, 2014

Change the Weather History Date:

Wednesday, February 26, 2014

  Actual Average Record
Temperature  
Mean Temperature 38 °F -  
Max Temperature 41 °F 34 °F 42 °F (2003)
Min Temperature 35 °F 27 °F 15 °F (2008)
Degree Days  
Heating Degree Days 27    
Moisture  
Dew Point 38 °F    
Average Humidity 97    
Maximum Humidity 100    
Minimum Humidity 93    
Precipitation  
Precipitation 1.70 in - - ()
Sea Level Pressure  
Sea Level Pressure 29.24 in    
Wind  
Wind Speed 15 mph (NE)    
Max Wind Speed 24 mph    
Max Gust Speed 39 mph    
Visibility 3 miles    
Events      
Averages and records for this station are not official NWS values.
T = Trace of Precipitation, MM = Missing Value Source: NWS Daily Summary

Daily Weather History Graph

Daily Weather History Graph

Search for Another Location

Airport or City:

Trip Planner

Search our weather history database for the weather conditions in past years. The results will help you decide how hot, cold, wet, or windy it might be!

Date:

Astronomy

Feb. 26, 2014 Rise Set
Actual Time 8:32 AM AKST 7:01 PM AKST
Civil Twilight 7:54 AM AKST 7:39 PM AKST
Nautical Twilight 7:11 AM AKST 8:22 PM AKST
Astronomical Twilight 6:27 AM AKST 9:06 PM AKST
Moon 6:50 AM AKST (2/26) 4:09 PM AKST (2/26)
Length of Visible Light 11h 44m
Length of Day
10h 29m
Waning Crescent, 9% of the Moon is Illuminated
Feb 26
Waning Crescent
Feb 28
New
Mar 8
First Quarter
Mar 16
Full
Mar 23
Last Quarter

Hourly Weather History & Observations

Time (AKST) Temp. Windchill Dew Point Humidity Pressure Visibility Wind Dir Wind Speed Gust Speed Precip Events Conditions
12:16 AM 35.6 °F 28.6 °F 35.6 °F 100% 29.30 in 3.0 mi ENE 9.2 mph - N/A   Overcast
12:36 AM 37.4 °F 31.4 °F 35.6 °F 93% 29.30 in 3.0 mi NE 8.1 mph - N/A   Overcast
12:56 AM 37.4 °F 30.8 °F 35.6 °F 93% 29.28 in 4.0 mi NE 9.2 mph 16.1 mph 0.01 in   Overcast
1:16 AM 37.4 °F 27.8 °F 35.6 °F 93% 29.27 in 4.0 mi NE 17.3 mph 25.3 mph N/A   Overcast
1:36 AM 37.4 °F 26.9 °F 35.6 °F 93% 29.26 in 4.0 mi NE 20.7 mph 31.1 mph 0.04 in   Overcast
1:56 AM 37.4 °F 29.3 °F 37.4 °F 100% 29.25 in 3.0 mi NE 12.7 mph 25.3 mph 0.05 in   Overcast
2:16 AM 37.4 °F 27.5 °F 35.6 °F 93% 29.25 in 4.0 mi NE 18.4 mph 31.1 mph 0.02 in   Overcast
2:36 AM 37.4 °F 28.2 °F 37.4 °F 100% 29.24 in 4.0 mi NE 16.1 mph 27.6 mph 0.04 in   Overcast
2:56 AM 37.4 °F 26.9 °F 37.4 °F 100% 29.23 in 4.0 mi NE 20.7 mph 33.4 mph 0.06 in   Overcast
3:16 AM 37.4 °F 26.1 °F 37.4 °F 100% 29.23 in 3.0 mi NE 24.2 mph 33.4 mph 0.02 in   Overcast
3:36 AM 37.4 °F 27.5 °F 37.4 °F 100% 29.22 in 3.0 mi NE 18.4 mph 27.6 mph 0.04 in   Overcast
3:56 AM 37.4 °F 27.2 °F 37.4 °F 100% 29.22 in 4.0 mi NE 19.6 mph 29.9 mph 0.07 in   Overcast
4:16 AM 37.4 °F 27.8 °F 35.6 °F 93% 29.21 in 3.0 mi NE 17.3 mph 31.1 mph 0.05 in   Overcast
4:36 AM 39.2 °F 30.5 °F 37.4 °F 93% 29.20 in 3.0 mi NE 16.1 mph 23.0 mph 0.12 in   Overcast
4:56 AM 39.2 °F 30.2 °F 39.2 °F 100% 29.20 in 3.0 mi ENE 17.3 mph 25.3 mph 0.17 in   Overcast
5:16 AM 39.2 °F 29.8 °F 39.2 °F 100% 29.20 in 4.0 mi ENE 18.4 mph 27.6 mph 0.03 in   Overcast
5:36 AM 39.2 °F 30.5 °F 37.4 °F 93% 29.20 in 5.0 mi NE 16.1 mph 24.2 mph 0.04 in   Overcast
5:56 AM 39.2 °F 30.2 °F 37.4 °F 93% 29.19 in 3.0 mi ENE 17.3 mph 27.6 mph 0.07 in   Overcast
6:16 AM 39.2 °F 30.8 °F 39.2 °F 100% 29.19 in 3.0 mi ENE 15.0 mph 26.5 mph 0.03 in   Overcast
6:36 AM 39.2 °F 29.6 °F 39.2 °F 100% 29.19 in 2.5 mi ENE 19.6 mph 32.2 mph 0.04 in   Overcast
6:56 AM 39.2 °F 29.3 °F 37.4 °F 93% 29.19 in 3.0 mi ENE 20.7 mph 39.1 mph 0.05 in   Overcast
7:16 AM 39.2 °F 29.8 °F 39.2 °F 100% 29.20 in 2.5 mi ENE 18.4 mph 33.4 mph 0.02 in   Overcast
7:36 AM 39.2 °F 30.5 °F 37.4 °F 93% 29.20 in 3.0 mi ENE 16.1 mph 29.9 mph 0.03 in   Overcast
7:56 AM 39.2 °F 30.5 °F 37.4 °F 93% 29.21 in 3.0 mi NE 16.1 mph 24.2 mph 0.06 in   Overcast
8:16 AM 39.2 °F 29.8 °F 39.2 °F 100% 29.21 in 2.5 mi ENE 18.4 mph 27.6 mph 0.03 in   Overcast
8:36 AM 39.2 °F 31.6 °F 37.4 °F 93% 29.21 in 3.0 mi ENE 12.7 mph 29.9 mph 0.05 in   Overcast
8:56 AM 39.2 °F 30.5 °F 39.2 °F 100% 29.21 in 2.5 mi NE 16.1 mph 29.9 mph 0.07 in   Overcast
9:16 AM 39.2 °F 31.2 °F 39.2 °F 100% 29.22 in 1.8 mi ENE 13.8 mph 21.9 mph 0.02 in   Overcast
9:36 AM 39.2 °F 30.8 °F 37.4 °F 93% 29.23 in 3.0 mi ENE 15.0 mph 25.3 mph 0.04 in   Overcast
9:56 AM 39.2 °F 31.2 °F 39.2 °F 100% 29.23 in 2.0 mi ENE 13.8 mph 21.9 mph 0.05 in   Overcast
10:16 AM 39.2 °F 30.2 °F 39.2 °F 100% 29.23 in 3.0 mi NE 17.3 mph 32.2 mph 0.01 in   Overcast
10:36 AM 39.2 °F 30.8 °F 39.2 °F 100% 29.23 in 2.0 mi NE 15.0 mph 23.0 mph 0.03 in   Overcast
10:56 AM 39.2 °F 31.6 °F 37.4 °F 93% 29.23 in 2.0 mi ENE 12.7 mph 20.7 mph 0.06 in   Overcast
11:16 AM 39.2 °F 31.6 °F 37.4 °F 93% 29.23 in 2.0 mi ENE 12.7 mph 19.6 mph 0.03 in   Overcast
11:36 AM 39.2 °F 31.6 °F 39.2 °F 100% 29.23 in 2.0 mi NE 12.7 mph 19.6 mph 0.05 in   Overcast
11:56 AM 39.2 °F 32.0 °F 39.2 °F 100% 29.23 in 2.5 mi ENE 11.5 mph 20.7 mph 0.08 in   Overcast
12:16 PM 39.2 °F 30.5 °F 39.2 °F 100% 29.23 in 3.0 mi NE 16.1 mph - 0.01 in   Overcast
12:36 PM 39.2 °F 30.5 °F 37.4 °F 93% 29.23 in 2.5 mi NE 16.1 mph 24.2 mph 0.03 in   Mostly Cloudy
12:56 PM 39.2 °F 30.2 °F 39.2 °F 100% 29.23 in 3.0 mi NE 17.3 mph 24.2 mph 0.06 in   Overcast
1:16 PM 39.2 °F 29.8 °F 39.2 °F 100% 29.23 in 2.5 mi NE 18.4 mph 26.5 mph 0.05 in   Overcast
1:36 PM 39.2 °F 29.8 °F 39.2 °F 100% 29.23 in 2.0 mi NE 18.4 mph 24.2 mph 0.10 in   Overcast
1:56 PM 39.2 °F 30.5 °F 39.2 °F 100% 29.23 in 2.5 mi NE 16.1 mph 26.5 mph 0.14 in   Mostly Cloudy
2:16 PM 39.2 °F 29.6 °F 39.2 °F 100% 29.22 in 2.5 mi NE 19.6 mph 31.1 mph 0.05 in   Overcast
2:36 PM 39.2 °F 30.2 °F 39.2 °F 100% 29.22 in 2.0 mi NE 17.3 mph 26.5 mph 0.09 in   Mostly Cloudy
2:56 PM 39.2 °F 30.8 °F 39.2 °F 100% 29.22 in 2.0 mi NE 15.0 mph 23.0 mph 0.14 in   Overcast
3:16 PM 39.2 °F 30.2 °F 39.2 °F 100% 29.22 in 2.5 mi NE 17.3 mph 27.6 mph 0.03 in   Overcast
3:36 PM 39.2 °F 29.8 °F 39.2 °F 100% 29.22 in 2.0 mi NE 18.4 mph 25.3 mph 0.07 in   Overcast
3:56 PM 39.2 °F 30.2 °F 39.2 °F 100% 29.22 in 1.5 mi NE 17.3 mph 24.2 mph 0.10 in   Overcast
4:16 PM 39.2 °F 30.2 °F 39.2 °F 100% 29.22 in 2.0 mi NE 17.3 mph 26.5 mph 0.02 in   Overcast
4:36 PM 39.2 °F 29.8 °F 39.2 °F 100% 29.23 in 2.0 mi NE 18.4 mph 25.3 mph 0.06 in   Overcast
4:56 PM 39.2 °F 29.3 °F 39.2 °F 100% 29.23 in 1.8 mi NE 20.7 mph 27.6 mph 0.08 in   Overcast
5:16 PM 39.2 °F 29.8 °F 39.2 °F 100% 29.23 in 1.8 mi NE 18.4 mph 33.4 mph 0.02 in   Overcast
5:36 PM 39.2 °F 29.8 °F 39.2 °F 100% 29.23 in 1.5 mi NE 18.4 mph 31.1 mph 0.06 in   Overcast
5:56 PM 39.2 °F 30.8 °F 39.2 °F 100% 29.23 in 1.5 mi NE 15.0 mph 20.7 mph 0.10 in   Overcast
6:16 PM 39.2 °F 30.8 °F 39.2 °F 100% 29.22 in 1.5 mi NE 15.0 mph 23.0 mph 0.04 in   Overcast
6:36 PM 39.2 °F 31.6 °F 39.2 °F 100% 29.23 in 1.8 mi NE 12.7 mph 20.7 mph 0.05 in   Overcast
6:56 PM 39.2 °F 30.8 °F 37.4 °F 93% 29.24 in 2.0 mi ENE 15.0 mph 23.0 mph 0.07 in   Overcast
7:16 PM 39.2 °F 31.2 °F 37.4 °F 93% 29.24 in 3.0 mi ENE 13.8 mph 21.9 mph 0.01 in   Overcast
7:36 PM 41.0 °F 34.3 °F 39.2 °F 93% 29.24 in 4.0 mi NE 11.5 mph 23.0 mph 0.02 in   Overcast
7:56 PM 41.0 °F 34.7 °F 39.2 °F 93% 29.25 in 5.0 mi ENE 10.4 mph 25.3 mph 0.04 in   Overcast
8:16 PM 39.2 °F 32.0 °F 37.4 °F 93% 29.25 in 7.0 mi ENE 11.5 mph 19.6 mph N/A   Overcast
8:36 PM 39.2 °F 31.6 °F 39.2 °F 100% 29.26 in 4.0 mi ENE 12.7 mph 18.4 mph 0.02 in   Overcast
8:56 PM 39.2 °F 32.5 °F 39.2 °F 100% 29.27 in 7.0 mi ENE 10.4 mph 20.7 mph 0.03 in   Overcast
9:16 PM 39.2 °F 31.2 °F 39.2 °F 100% 29.28 in 5.0 mi East 13.8 mph 23.0 mph 0.01 in   Overcast
9:36 PM 39.2 °F 31.2 °F 39.2 °F 100% 29.29 in 3.0 mi East 13.8 mph 24.2 mph 0.03 in   Mostly Cloudy
9:56 PM 39.2 °F 32.0 °F 37.4 °F 93% 29.30 in 4.0 mi ENE 11.5 mph 24.2 mph 0.04 in   Mostly Cloudy
10:16 PM 39.2 °F 32.5 °F 39.2 °F 100% 29.30 in 5.0 mi East 10.4 mph 21.9 mph 0.01 in   Mostly Cloudy
10:36 PM 39.2 °F 31.2 °F 37.4 °F 93% 29.31 in 4.0 mi ENE 13.8 mph 21.9 mph 0.02 in   Mostly Cloudy
10:56 PM 39.2 °F 32.5 °F 37.4 °F 93% 29.31 in 3.0 mi ENE 10.4 mph 19.6 mph 0.04 in   Mostly Cloudy
11:16 PM 39.2 °F 30.2 °F 37.4 °F 93% 29.32 in 4.0 mi ENE 17.3 mph 23.0 mph 0.02 in   Mostly Cloudy
11:36 PM 39.2 °F 32.5 °F 37.4 °F 93% 29.33 in 5.0 mi ENE 10.4 mph 16.1 mph 0.03 in   Mostly Cloudy
11:56 PM 39.2 °F 31.2 °F 37.4 °F 93% 29.33 in 4.0 mi ENE 13.8 mph 19.6 mph 0.06 in   Mostly Cloudy